Location: ??????
(48.5442°N, 34.3353°E)
Time: 00:33:33
(UTC+00:00)

Daily predictions for brighter satellites

Satellite Brightness Start Highest point End
(mag) Time Altitude Azimuth Time Altitude Azimuth Time Altitude Azimuth
SL-08 R/B 4.2 00:08:14 47° NE 00:08:14 47° NE 00:11:59 10° N
SL-16 R/B 3.8 00:12:19 27° NW 00:12:19 27° NW 00:15:19 10° NNW
Cosmos 1241 Rocket 4.4 00:10:11 75° NNW 00:10:11 75° NNW 00:16:27 10° NE
IDEFIX/ARIANE 42P 4.1 00:06:37 10° NNE 00:11:18 31° E 00:12:52 27° SE
ARIANE 5 R/B 3.2 00:16:00 10° NNE 00:20:57 47° E 00:21:30 45° ESE
IRS-1D 3.7 00:16:32 10° NNE 00:21:19 70° N 00:21:19 70° N
CZ-2D R/B 3.1 00:16:59 10° N 00:20:45 36° NNW 00:20:45 36° NNW
Cosmos 1151 Rocket 4.0 00:23:47 46° ENE 00:23:47 46° ENE 00:27:20 10° NNE
ATLAS 5 CENTAUR R/B 2.8 00:26:24 35° N 00:26:24 35° N 00:30:02 10° NNE
NPP 4.4 00:22:49 10° N 00:26:59 41° NW 00:26:59 41° NW
Cosmos 2297 Rocket 4.0 00:27:18 10° NW 00:28:49 18° NW 00:28:49 18° NW
CBERS-1 4.2 00:29:06 10° N 00:33:37 62° NNW 00:33:37 62° NNW
Resurs 1-4 Rocket 3.3 00:31:16 10° N 00:34:54 30° NW 00:34:54 30° NW
Cosmos 2082 3.6 00:31:20 10° NNW 00:37:03 86° WSW 00:39:00 44° SSE
Cosmos 1933 4.1 00:42:24 50° NNE 00:42:24 50° NNE 00:45:30 10° N
USA 305 3.7 00:46:32 43° ESE 00:46:32 43° ESE 00:50:05 10° ENE
Meteor 1-25 Rocket 4.1 00:42:44 10° NNW 00:48:37 86° W 00:50:48 40° S
USA 306 3.6 00:50:27 47° ESE 00:50:27 47° ESE 00:54:10 10° ENE
CZ-2D R/B 3.8 00:47:32 10° NNE 00:51:42 62° ESE 00:52:06 58° SE
Cosmos 1697 Rocket 2.6 00:50:48 58° SSW 00:51:55 82° ESE 00:57:34 10° NNE
SJ 16-02 3.4 00:48:20 10° N 00:52:09 28° ENE 00:55:57 10° ESE
USA 267 3.2 00:46:20 10° NE 00:52:55 87° NNW 00:54:57 49° WSW
IRS-P3 4.0 00:48:19 10° N 00:53:38 70° WNW 00:54:11 65° WSW
ASTEX 1 3.6 00:49:55 10° N 00:54:55 69° E 00:56:54 36° SSE
X-37B 3.0 00:56:52 19° ESE 00:56:52 19° ESE 00:58:03 10° E
Cosmos 1980 Rocket 2.9 00:53:31 29° SSE 00:56:03 50° ESE 01:01:31 10° NE
NOSS 2-2 (E) 4.4 00:51:53 10° NW 00:57:33 77° SW 01:05:26 10° SSE
Cosmos 389 Rocket 3.6 00:58:26 39° ESE 00:58:47 40° E 01:02:08 10° NNE
CZ-2C R/B 4.4 00:54:39 10° NE 00:59:01 28° E 01:03:25 10° SSE
H-2A R/B 3.0 00:55:48 10° SE 01:00:00 50° ENE 01:04:20 10° N
Cosmos 2263 Rocket 3.2 00:57:57 10° NNW 01:03:26 48° NE 01:08:53 10° SE
ATLAS 2AS CENTAUR R/B 4.3 00:56:31 10° NW 01:03:31 35° NNE 01:10:04 10° E
ERS-1 4.4 00:59:17 10° NNE 01:04:24 75° WNW 01:05:30 55° SW
Meteor 1-14 Rocket 4.3 00:59:25 10° N 01:05:06 77° ENE 01:10:39 10° SSE
Iridium 2 4.2 01:04:52 44° SE 01:05:40 55° E 01:09:20 10° NNE
ERS-2 4.1 01:02:42 10° SE 01:05:56 30° ENE 01:09:11 10° N
NOSS 2-2 (D) 4.4 01:00:25 10° NW 01:05:57 79° SW 01:13:42 10° SSE
Cosmos 1818 4.3 01:05:33 35° WNW 01:06:31 38° NW 01:11:37 10° NNE
SL-8 R/B 3.5 01:08:02 65° WSW 01:08:39 79° SSW 01:13:26 10° ESE
Cosmos 1602 3.8 01:04:49 10° N 01:08:07 63° NNW 01:08:07 63° NNW
Cosmos 1821 Rocket 4.0 01:03:21 10° NNW 01:09:33 58° W 01:11:55 36° SSW
SL-24 R/B 4.4 01:15:03 52° WSW 01:15:20 53° W 01:20:25 10° NNW
USA 307 2.9 01:16:13 61° SSW 01:16:48 71° SSE 01:21:02 10° ENE
Spot 4 Rocket 3.9 01:11:52 10° NNE 01:17:03 84° WNW 01:19:15 35° SSW
Cosmos 1470 Rocket 3.7 01:14:09 10° NNW 01:18:21 53° W 01:18:21 53° W
USA 308 2.9 01:19:11 59° SSW 01:19:52 74° SSE 01:24:08 10° ENE
Cosmos 1812 4.3 01:17:15 10° SSE 01:20:46 35° E 01:24:19 10° NNE
Cosmos 1934 Rocket 3.8 01:18:43 10° NNW 01:24:46 72° W 01:30:48 10° S
Cosmos 1500 3.7 01:21:57 10° N 01:25:47 61° ENE 01:29:33 10° SSE
Landsat 5 3.6 01:24:01 10° SSE 01:28:33 86° WSW 01:33:05 10° NNW
ADEOS Rocket 3.8 01:22:15 10° SE 01:28:56 58° ENE 01:34:57 10° N
USA 234 3.3 01:22:47 10° SSE 01:29:08 53° SW 01:35:31 10° WNW
Cosmos 2227 Rocket 4.3 01:25:08 10° NW 01:25:13 10° NW 01:25:13 10° NW
Cosmos 1777 Rocket 4.3 01:24:54 10° NW 01:29:50 43° WSW 01:32:21 25° SSW
PKM 4.3 01:28:41 14° NW 01:32:28 62° NNE 01:35:55 10° ESE
Cosmos 1238 Rocket 4.0 01:26:04 10° NNW 01:32:42 72° W 01:38:53 10° S
Lacrosse 5 1.8 01:32:48 38° WSW 01:34:47 79° NNW 01:39:53 10° NE
Cosmos 1782 2.9 01:34:33 46° WSW 01:35:17 54° WNW 01:39:17 10° N
Nadezhda 3 Rocket 4.3 01:33:54 31° WSW 01:36:17 44° WNW 01:42:09 10° N
ADEOS II 3.3 01:33:30 10° N 01:37:38 24° WNW 01:38:28 23° WNW
ERBS 4.5 01:37:01 14° SSE 01:38:44 20° SE 01:41:17 10° E
Cosmos 1515 Rocket 3.8 01:37:57 37° SW 01:39:17 50° WNW 01:43:39 10° N
CZ-2C R/B 2.7 01:38:05 10° N 01:41:49 62° WNW 01:43:08 36° SW
Cosmos 972 Rocket 4.3 01:40:29 33° WSW 01:42:07 44° WNW 01:46:51 10° N
CZ-4B R/B 3.0 01:39:45 10° SE 01:42:39 35° ENE 01:45:39 10° N
MSX 3.8 01:39:17 10° N 01:45:02 68° WNW 01:49:36 16° SSW
BREEZE M DEB (TANK) 4.1 01:29:14 10° WNW 01:45:52 62° SW 01:50:30 10° SE
DEBRIS 2.8 01:45:59 38° SSW 01:45:59 38° SSW 01:49:40 10° SE
Cosmos 1605 Rocket 4.0 01:41:02 10° NNW 01:47:25 76° W 01:53:48 10° S
Cosmos 44 3.1 01:46:23 25° SSW 01:48:58 80° SE 01:53:38 10° NE
IRIDIUM 103 4.3 01:43:59 10° N 01:49:15 87° E 01:54:28 10° S
Cosmos 2278 3.7 01:46:14 24° SW 01:49:41 65° WNW 01:55:23 10° NNE
Meteor 1-11 Rocket 4.2 01:43:56 10° N 01:49:46 67° ENE 01:55:25 10° SSE
USA 276 2.2 01:49:16 42° W 01:50:11 72° N 01:53:25 10° ENE
IDEFIX/ARIANE 42P 3.1 01:46:03 10° N 01:50:59 42° WNW 01:53:40 24° WSW
Cosmos 921 Rocket 2.9 01:50:58 15° SSW 01:54:26 83° ESE 01:58:38 10° NNE
Cosmos 1356 3.9 01:51:22 10° NNW 01:54:34 36° W 01:55:03 34° WSW
Cosmos 1933 Rocket 4.2 01:51:52 10° NNW 01:55:45 32° W 01:57:16 25° SW
Cosmos 2228 Rocket 3.0 01:53:40 16° SSW 01:57:04 63° WNW 02:01:27 10° N
Cosmos 2369 4.3 01:54:43 24° WSW 01:57:45 42° NW 02:03:12 10° NNE
ARIANE 5 R/B 3.5 01:55:32 10° N 01:59:50 28° WNW 02:01:51 21° W
Cosmos 1937 Rocket 4.1 01:57:51 10° NNW 02:02:59 60° ENE 02:08:03 10° SE
SAR-Lupe-4 4.2 01:59:37 10° SSE 02:03:09 58° ENE 02:06:43 10° N
ATLAS CENTAUR R/B 4.0 01:53:04 10° WNW 02:04:31 48° N 02:09:01 10° E
Meteor 1-27 Rocket 4.4 01:59:40 10° S 02:05:30 62° E 02:11:21 10° NNE
IRIDIUM 106 4.3 02:02:22 10° N 02:07:34 67° W 02:12:43 10° S
ALOS 3.5 02:04:02 10° NNE 02:08:32 45° E 02:13:00 10° S
Cosmos 1733 Rocket 4.0 02:05:45 10° N 02:10:02 51° ENE 02:14:15 10° SSE
CZ-4C R/B 4.0 02:08:59 20° SW 02:10:20 26° W 02:13:25 10° NW
ATLAS 5 CENTAUR R/B 3.9 02:08:35 10° NW 02:11:33 16° N 02:14:47 10° NNE
Cosmos 1869 Rocket 3.7 02:10:38 10° NNW 02:14:50 48° W 02:18:59 10° SSW
Cosmos 1536 3.1 02:11:07 10° N 02:15:13 75° E 02:19:17 10° SSE
SAR-Lupe-1 4.2 02:11:53 10° SSE 02:15:27 78° ENE 02:19:03 10° NNW
Cosmos 1484 Rocket 3.5 02:16:35 10° NNE 02:20:31 59° E 02:24:28 10° S
GENESIS II 4.3 02:16:48 11° SSW 02:20:41 80° SE 02:24:44 10° NE
Cosmos 2100 Rocket 4.2 02:15:33 10° N 02:21:59 85° E 02:28:21 10° S
Cosmos 1727 Rocket 4.0 02:16:04 10° SSW 02:22:24 76° W 02:28:46 10° N
Meteor 1-4 Rocket 2.4 02:19:13 10° SSW 02:22:38 63° WNW 02:26:08 10° N
Cosmos 1802 Rocket 4.4 02:18:02 10° N 02:24:13 68° E 02:30:25 10° SSE
USA 305 3.3 02:22:42 16° W 02:26:01 55° NNW 02:30:12 10° ENE
Cosmos 1763 Rocket 3.7 02:21:52 10° SSW 02:27:11 82° ESE 02:32:32 10° NNE
USA 306 3.3 02:26:37 14° W 02:30:06 53° NNW 02:34:17 10° ENE
Cosmos 2360 Rocket 3.8 02:24:56 10° S 02:30:07 38° ESE 02:35:19 10° NE
SJ 16-02 1.9 02:26:46 10° NW 02:30:48 36° WSW 02:34:48 10° SSW
Meteor 1-31 Rocket 3.3 02:27:28 10° NNE 02:31:17 62° ESE 02:35:04 10° S
NOSS 3-4 (A) 4.0 02:24:22 10° NW 02:31:19 80° NE 02:39:02 10° SE
X-37B 1.3 02:29:08 16° WSW 02:31:23 39° S 02:34:23 10° ESE
NOSS 3-4 (C) 4.0 02:24:29 10° NW 02:31:25 80° NE 02:39:09 10° SE
PSLV R/B 4.0 02:28:12 10° N 02:32:09 40° WNW 02:36:03 10° SW
Cosmos 1689 Rocket 2.6 02:29:14 10° SSE 02:32:10 64° ENE 02:35:07 10° N
Cosmos 389 Rocket 4.3 02:32:18 13° W 02:33:42 16° WNW 02:35:57 10° NNW
USA 267 3.9 02:29:24 10° ENE 02:35:37 48° NNW 02:41:50 10° W
H-2A R/B 3.4 02:33:03 10° SW 02:36:16 20° W 02:39:33 10° NW
Cosmos 1697 Rocket 4.1 02:32:33 11° W 02:36:35 23° NW 02:41:00 10° N
Gbstr 26 Del rocket 4.5 02:29:24 10° WNW 02:37:21 65° SW 02:44:18 10° SE
CZ-2C R/B 2.9 02:32:33 10° N 02:37:24 46° WNW 02:42:19 10° SW
ERS-2 3.3 02:36:33 10° SSW 02:39:31 23° W 02:42:30 10° NW
METEOR-M 4.5 02:34:31 10° NNE 02:39:54 73° ESE 02:45:14 10° S
PAYLOAD A 4.4 02:35:52 10° N 02:40:11 36° WNW 02:44:27 10° SW
Cosmos 1980 Rocket 3.0 02:35:19 11° WSW 02:40:17 33° NW 02:45:25 10° NNE
NOSS 3-3 (A) 4.0 02:35:38 10° SW 02:41:28 69° NW 02:48:11 10° NE
NOSS 3-3 (C) 4.0 02:35:48 10° SW 02:41:35 69° NW 02:48:15 10° NE
FENGYUN 3A 3.7 02:37:34 10° NNE 02:43:00 90° ESE 02:48:24 10° SSW
CZ-4C R/B 4.1 02:37:21 10° NW 02:43:48 43° NE 02:51:19 10° ESE
Cosmos 1459 Rocket 3.9 02:37:50 10° NNW 02:43:57 74° W 02:49:58 10° S
Cosmos 2322 Rocket 2.3 02:39:35 10° SSW 02:45:16 85° ESE 02:51:01 10° NNE
Cosmos 2263 Rocket 2.9 02:42:12 10° NW 02:47:10 32° WSW 02:52:08 10° SSW
Cosmos 990 Rocket 4.4 02:42:31 10° NW 02:47:22 41° WSW 02:52:13 10° S
SL-8 R/B 4.5 02:46:33 10° W 02:50:52 34° SSW 02:55:10 10° SSE
Cosmos 468 Rocket 4.1 02:46:32 10° SW 02:51:46 59° WNW 02:57:00 10° NNE
SJ-12 4.4 02:48:29 10° NNE 02:52:37 68° ESE 02:56:44 10° S
SL-16 R/B 2.2 02:47:17 10° SW 02:52:56 73° WNW 02:58:39 10° NNE
Cosmos 1844 Rocket 3.0 02:48:46 10° NNW 02:54:26 73° ENE 03:00:05 10° SE
ATLAS 2AS CENTAUR R/B 2.9 02:47:49 10° NW 02:55:27 90° ENE 03:02:25 10° SE
